RH
97 101 98 100 99 100 101 99 100 100 100 100 100 100 100 100 99 101 104 105 105 106 106 105 103 100 99 100 101 98 87 74 70 76 83 85 85 83 77 71 64 59 55 52 51 54 58 63 69 71 73 77 83 91 98 101 101 101 100 100 100 100 99 99 99 100 100 100 100 99 98 98 97 96 95 95 95 95 97 97 97 98 98 97 95 94 94 91
101 103 99 100 100 100 100 100 100 100 100 100 100 100 99 100 99 101 105 106 106 107 105 102 101 100 101 102 97 86 75 71 77 83 84 83 80 74 68 63 59 56 53 51 50 52 57 64 69 72 75 78 80 84 91 97 100 102 102 101 101 102 102 101 102 102 103 102 101 101 100 100 100 99 98 97 95 94 94 92 92 96 97 97 99 101 102 102
101 104 102 100 100 100 100 100 100 99 100 99 100 100 100 100 99 102 106 104 102 104 103 102 103 103 101 93 82 74 72 78 84 85 82 78 72 65 62 59 57 55 53 53 56 60 65 70 76 81 85 86 83 85 90 93 95 97 97 97 98 99 100 100 101 101 102 102 102 102 101 101 102 101 102 102 101 101 101 98 98 100 100 99 100 100 101 103
100 101 101 101 100 100 100 100 100 100 100 100 100 100 100 100 103 108 106 101 100 104 104 101 99 93 85 77 73 76 82 87 86 81 75 70 66 63 61 60 58 57 58 62 67 73 77 81 86 91 95 96 94 94 97 97 98 98 96 96 96 96 97 95 95 94 94 95 95 95 94 94 94 94 95 96 97 97 98 97 99 101 101 101 101 100 99 100
103 104 101 101 101 100 100 99 99 100 101 101 100 99 100 102 107 109 104 101 103 102 97 89 83 78 74 75 79 83 85 84 79 72 67 65 64 64 63 63 64 67 70 74 79 83 86 89 92 94 98 101 99 99 101 101 102 104 104 104 103 102 101 97 95 92 91 89 88 87 85 83 80 79 79 79 79 78 78 80 82 84 87 89 90 91 92 93
89 98 98 100 101 100 100 101 101 101 101 101 101 102 103 105 105 102 97 94 90 84 79 76 75 75 77 79 80 81 79 75 69 65 64 65 66 66 69 72 75 78 80 81 83 85 89 92 94 97 100 101 101 102 103 102 101 102 99 96 93 90 86 82 78 75 73 70 68 65 62 59 57 56 55 56 55 55 57 58 59 60 63 66 68 71 73 75
71 76 80 85 89 89 92 98 102 102 102 102 104 103 100 97 91 86 82 79 76 75 75 76 78 77 76 76 76 74 71 68 66 66 68 68 68 71 75 79 81 81 80 80 82 84 87 91 93 95 96 96 96 95 93 89 86 83 79 76 72 68 66 62 57 52 48 45 42 40 39 38 40 42 43 44 43 45 48 48 48 49 50 51 52 54 55 57
83 80 81 85 87 85 88 93 95 96 95 94 92 89 85 80 78 77 75 74 76 77 76 75 73 71 72 73 74 72 70 70 70 71 70 70 73 76 77 77 78 77 76 77 78 78 80 82 84 85 86 85 84 83 80 75 73 69 67 66 61 56 52 47 41 37 34 32 33 34 37 39 42 44 46 45 44 47 49 50 51 50 50 50 50 51 51 51
97 95 94 94 93 90 91 90 88 85 82 81 80 80 79 77 76 73 69 68 67 67 66 65 66 73 79 80 77 75 75 74 74 74 72 74 76 77 76 75 74 73 73 73 73 75 78 80 82 84 85 83 79 77 74 70 68 66 64 60 53 46 39 34 32 31 33 36 39 41 42 44 44 44 44 45 47 52 55 57 57 55 54 53 53 53 53 53
106 106 102 98 94 90 89 88 88 88 84 82 83 85 83 78 72 66 66 67 66 65 65 68 78 88 91 86 82 80 79 78 79 78 77 77 77 76 74 72 71 71 72 75 79 83 87 87 86 83 81 78 73 70 67 63 60 58 54 48 42 39 36 36 35 36 38 40 42 44 46 47 44 42 45 48 53 57 58 58 56 55 55 54 54 54 53 52
109 111 106 102 98 93 90 90 94 96 92 90 89 86 78 69 65 66 70 72 72 72 73 84 95 97 90 82 80 81 82 82 83 83 82 80 77 75 73 71 72 76 80 83 86 87 87 83 77 72 69 66 63 60 56 50 46 42 40 39 40 42 44 44 44 44 43 42 43 45 51 48 41 41 47 51 53 53 52 51 51 51 51 50 49 49 48 48
106 108 107 107 105 103 102 99 97 97 95 93 86 76 68 66 68 70 73 75 76 79 88 99 101 93 84 78 77 79 81 82 82 80 78 77 75 74 74 75 78 82 84 83 80 75 71 67 62 60 57 53 49 45 41 37 35 35 38 42 46 48 49 48 49 50 47 47 47 48 54 48 38 41 46 46 45 44 43 43 43 44 44 44 44 44 44 44
110 110 111 110 109 109 110 105 100 99 94 85 75 70 71 72 72 75 79 82 85 92 103 103 94 84 80 78 77 77 80 80 78 76 74 75 76 76 75 76 75 74 72 68 63 58 54 52 50 47 43 38 35 33 34 36 38 42 45 48 50 49 47 47 50 50 48 48 46 46 50 43 35 37 40 39 39 39 40 40 41 42 42 41 41 40 39 39
113 111 109 106 104 106 109 107 101 94 83 75 76 78 79 78 81 87 89 92 97 103 103 92 82 77 76 78 78 80 80 77 75 74 74 73 71 69 66 64 62 58 55 52 49 47 45 43 39 36 34 33 35 37 42 45 46 46 46 46 46 45 43 43 44 43 41 41 40 40 42 38 34 37 39 40 41 41 41 40 41 40 38 36 35 33 32 31
109 105 103 103 104 106 107 101 91 83 80 85 90 90 90 91 94 96 96 98 99 96 88 79 75 72 74 79 81 82 79 76 76 75 73 69 65 61 58 54 52 49 48 47 45 43 41 39 37 36 37 39 42 43 44 44 42 40 39 39 40 40 39 38 37 36 35 36 37 38 38 36 36 38 39 38 38 37 37 36 35 33 31 29 29 29 29 29
106 104 104 106 106 103 96 87 82 83 91 98 99 98 98 96 95 96 97 95 89 82 76 71 70 72 78 82 83 81 78 79 78 75 70 64 60 57 52 49 48 47 47 46 45 42 40 39 40 41 42 42 42 41 39 38 37 36 36 36 36 35 34 33 34 34 35 35 36 37 35 33 32 32 32 33 32 31 31 30 30 29 29 29 29 29 29 30
108 107 107 106 98 89 82 81 85 91 100 104 101 98 96 94 95 95 92 84 76 71 68 68 72 78 82 83 84 85 83 79 73 66 60 55 53 50 48 46 46 46 46 45 43 40 40 41 42 43 42 41 39 37 36 36 36 36 35 34 32 32 33 33 35 36 36 35 33 31 30 28 27 26 26 28 29 28 28 28 29 29 30 30 30 30 30 30
110 105 101 95 85 80 82 87 94 99 103 103 99 96 96 95 93 87 80 72 64 61 61 65 71 77 83 84 86 83 75 66 59 54 52 50 49 47 45 45 45 45 42 41 40 41 44 46 46 46 44 42 40 38 37 36 35 34 33 32 31 32 35 36 36 37 36 33 31 29 27 27 27 27 27 28 30 30 30 31 31 31 30 30 29 29 29 30
103 94 86 82 82 86 91 96 100 101 100 97 96 96 94 89 83 76 68 59 53 52 55 60 66 74 80 78 72 65 57 52 51 50 50 49 47 46 45 43 41 39 38 39 43 49 52 52 50 47 44 41 39 37 35 34 33 32 31 31 32 34 36 38 39 39 37 34 32 30 28 28 31 31 30 30 31 32 34 35 35 34 33 32 31 31 31 31
90 83 81 83 90 96 99 103 103 100 97 95 93 90 86 81 75 68 57 49 47 49 53 58 65 69 67 60 54 51 50 51 51 51 49 47 45 44 42 39 37 37 41 46 51 55 54 52 48 44 41 38 36 35 33 32 32 32 32 32 33 34 35 38 39 41 41 39 36 34 31 30 32 33 33 32 32 33 36 37 38 38 37 36 36 36 35 34
84 84 90 96 102 103 103 102 99 97 97 93 88 83 81 78 71 60 49 46 47 49 53 55 57 55 51 48 47 49 51 52 51 49 47 45 43 40 39 38 40 44 49 52 54 54 53 51 47 44 41 39 36 35 33 32 32 32 32 32 32 33 34 35 37 42 46 46 45 43 41 38 36 36 36 34 33 33 35 36 38 40 41 41 42 43 42 41
89 95 101 106 107 105 102 99 97 99 97 91 86 83 82 78 67 54 47 45 46 47 49 50 49 48 46 46 48 51 53 52 50 48 46 44 41 39 39 41 45 48 51 52 52 52 52 51 48 46 44 41 37 34 33 31 31 31 32 32 32 33 33 32 34 37 43 49 51 51 50 48 47 47 47 46 43 41 39 39 41 43 44 45 47 47 47 46
98 102 103 106 107 105 102 101 102 101 94 89 86 83 84 79 65 56 51 47 45 47 49 49 48 47 46 47 51 53 53 52 50 48 45 42 41 41 43 47 49 50 51 52 52 51 51 50 49 48 45 41 38 34 33 32 31 31 31 32 32 32 34 34 35 36 40 45 49 52 51 47 46 49 51 51 50 50 50 49 49 51 51 50 51 52 53 53
102 101 100 104 107 106 104 104 103 96 91 90 88 87 90 84 70 62 57 52 49 49 49 47 45 45 45 49 54 57 55 53 50 47 43 42 43 46 48 50 51 53 54 54 54 52 50 49 48 47 44 41 38 35 34 34 33 33 33 34 35 36 38 39 41 42 43 45 47 50 51 45 37 39 42 40 39 41 46 52 57 61 63 62 62 62 63 63
101 101 101 102 104 104 103 100 96 92 91 90 87 89 93 90 78 68 61 57 54 52 48 44 43 43 44 50 58 60 57 54 50 46 44 44 47 49 52 53 54 57 57 56 55 53 51 50 48 45 43 40 38 37 36 34 34 33 34 35 36 37 38 39 41 42 44 46 47 50 57 57 45 38 40 39 37 38 42 49 55 59 63 64 65 65 64 65
100 101 101 101 102 101 98 94 91 91 90 88 85 88 94 93 85 74 65 60 59 56 50 44 43 43 46 54 61 62 59 57 52 48 47 48 50 52 55 57 59 60 59 58 57 54 52 51 49 47 45 42 40 38 37 36 35 35 35 35 37 38 40 40 39 41 44 46 47 49 56 65 60 49 46 45 43 46 48 51 54 55 58 59 59 59 59 62
100 101 100 101 101 97 95 93 93 93 91 88 88 92 98 98 90 78 68 64 64 60 51 45 44 46 51 59 64 64 63 60 56 54 53 53 55 58 60 61 63 63 63 61 59 55 53 52 53 52 50 47 44 42 42 41 40 40 40 40 40 42 44 45 44 45 47 49 50 53 56 63 65 54 47 48 47 50 54 55 54 54 56 58 59 59 61 65
100 100 101 101 100 98 97 96 95 95 93 92 94 98 103 100 89 78 69 68 68 62 53 48 46 49 56 64 66 65 65 64 62 61 58 58 62 65 66 67 67 70 70 67 61 57 56 56 57 57 56 53 51 50 51 49 47 45 45 45 45 45 48 50 50 50 53 56 56 60 62 65 72 61 45 42 44 50 58 58 58 60 64 67 69 69 71 73
100 100 100 100 100 101 100 97 96 97 96 95 96 101 101 94 85 78 73 71 70 65 58 51 49 54 60 65 67 68 69 70 71 68 64 65 67 69 72 73 75 80 80 73 66 60 59 59 59 60 60 60 59 58 58 57 54 52 52 53 51 51 52 56 58 57 60 63 64 70 71 71 83 80 56 43 41 51 62 63 61 65 69 73 74 75 79 82
100 100 100 101 101 100 100 99 99 100 97 95 98 100 96 89 86 84 80 75 72 69 61 53 52 57 59 62 67 72 77 80 81 77 72 71 71 73 76 78 83 87 85 78 68 62 60 59 59 60 62 64 65 64 63 61 58 56 56 56 57 56 56 60 64 64 67 70 72 82 86 86 94 91 70 52 45 55 66 67 67 68 68 67 66 71 79 83
100 100 100 101 100 99 99 99 101 102 97 95 98 98 91 86 84 83 79 76 74 71 64 56 53 55 57 59 64 75 85 90 90 84 78 74 75 79 81 82 87 89 86 79 69 63 61 60 60 60 62 64 66 65 65 63 60 57 55 55 58 57 57 62 66 69 74 75 79 91 98 101 103 96 78 59 52 60 65 65 70 70 65 61 61 68 74 74
100 100 100 100 99 99 99 101 105 102 94 93 95 93 86 80 75 73 74 76 75 70 65 61 56 53 55 57 63 78 92 96 94 88 82 78 79 84 87 88 91 93 90 83 74 68 65 65 64 62 63 64 66 68 67 65 63 61 58 58 59 56 54 58 62 68 74 74 80 93 101 105 109 101 83 66 61 65 63 61 65 64 61 64 69 71 70 69
101 100 100 98 97 97 98 103 105 98 92 93 93 89 84 77 71 71 75 77 74 68 65 67 63 55 53 56 65 83 95 98 97 93 86 82 84 90 94 95 97 98 95 89 83 78 75 75 75 73 72 71 72 73 72 69 67 65 64 62 61 56 50 50 54 60 65 67 72 83 92 101 106 95 78 69 69 65 62 62 63 66 72 76 78 77 75 78
100 98 97 97 97 99 102 104 101 95 94 95 93 91 87 79 74 77 80 79 76 71 70 74 70 58 52 58 71 87 98 100 100 96 87 85 89 96 98 98 99 98 94 91 87 84 85 87 85 83 82 81 80 80 77 72 68 69 67 63 63 59 51 48 49 51 54 60 69 77 84 95 101 87 72 73 74 67 64 66 68 74 79 77 74 75 77 79
97 97 99 101 103 106 107 104 100 98 98 99 98 95 87 78 77 82 86 84 79 74 74 76 71 58 54 64 79 92 99 101 102 97 87 86 93 99 99 99 100 98 93 90 85 84 89 91 91 91 89 87 86 86 83 75 72 74 72 68 66 63 57 51 50 54 53 56 71 83 86 97 103 89 78 78 73 65 66 70 73 75 73 69 67 66 66 67
99 102 106 109 110 111 108 104 102 101 100 100 99 93 83 77 78 83 88 87 81 75 75 76 67 55 56 69 83 92 98 102 104 99 89 90 97 102 101 100 101 98 93 89 84 83 89 93 96 98 96 92 89 89 89 84 81 80 78 77 72 65 62 55 55 61 58 54 68 84 92 102 105 96 87 77 64 63 71 71 68 66 62 61 61 61 66 74
106 108 110 110 110 110 107 104 103 100 97 98 96 89 82 79 79 84 87 86 81 77 79 76 62 51 58 73 83 90 96 102 107 102 91 91 98 102 102 101 100 97 91 88 85 84 89 97 103 102 101 97 92 92 94 92 90 87 86 84 76 67 62 55 55 61 58 52 58 76 93 102 106 101 84 65 60 68 71 65 59 56 57 61 66 73 80 84
108 109 108 107 109 109 105 105 104 100 97 95 91 87 85 84 86 89 88 82 79 82 83 74 56 48 59 75 84 90 95 102 108 102 92 92 97 101 104 102 98 96 92 90 89 89 91 99 107 107 103 97 90 91 95 96 93 91 91 87 79 71 64 57 57 59 56 51 52 65 83 98 108 102 75 59 65 66 57 53 56 60 67 72 74 75 71 64
106 106 103 103 109 110 106 104 102 98 97 93 90 90 93 94 96 94 88 80 79 86 87 69 50 48 61 77 86 91 95 101 106 101 95 94 97 102 105 102 97 95 97 96 95 95 95 98 105 108 103 95 90 92 95 95 92 91 92 89 81 75 69 63 65 67 64 60 59 55 65 94 110 90 62 55 55 50 48 56 65 69 72 68 61 53 44 38
108 109 107 107 111 111 106 102 98 97 97 94 94 98 103 105 100 92 85 78 77 88 87 64 46 51 67 81 89 92 95 102 105 100 94 94 96 101 103 98 94 96 99 101 99 97 95 96 101 103 99 95 96 97 95 93 92 92 93 91 85 80 75 70 72 77 74 73 73 56 53 92 104 69 48 47 40 43 58 67 70 69 64 56 45 37 31 28
105 108 109 109 109 106 100 96 95 97 99 99 101 108 112 109 97 85 79 74 77 90 83 58 46 57 73 85 89 91 98 106 104 97 94 95 96 99 99 95 95 98 100 101 99 94 91 92 96 98 98 99 102 103 99 94 94 95 95 93 88 85 82 77 77 80 77 78 82 67 60 87 89 55 42 43 44 59 72 70 70 67 60 51 40 32 28 28
97 101 101 101 102 101 98 97 98 102 105 108 110 114 113 103 88 79 73 71 80 89 74 52 51 66 80 89 91 95 105 109 102 97 97 99 99 100 98 95 96 99 98 96 94 91 90 92 95 98 101 104 105 102 98 97 98 100 102 99 95 91 87 84 82 80 77 77 79 73 64 66 63 47 42 47 60 74 73 69 70 63 53 43 33 29 29 30
89 93 94 96 99 99 101 103 106 110 115 114 112 112 106 93 81 74 70 73 82 80 62 52 62 76 88 95 96 101 108 107 100 100 102 102 102 101 98 98 100 99 95 92 91 90 91 94 95 98 103 107 108 104 99 100 102 103 105 102 98 94 89 88 86 78 76 76 75 72 59 46 47 47 48 60 75 77 71 68 63 52 42 34 28 30 32 34
89 90 92 97 101 102 105 107 108 112 114 111 109 106 95 82 73 69 71 78 78 67 57 61 72 84 95 101 101 104 106 101 99 106 107 104 103 100 99 101 101 98 94 91 91 91 92 96 97 96 99 102 106 106 103 104 107 106 105 101 95 91 87 89 87 78 73 69 69 71 54 41 53 60 61 77 88 83 77 68 54 44 36 30 30 33 36 39
99 99 99 102 103 103 105 105 106 107 106 104 100 92 80 70 66 68 76 78 67 56 62 74 81 90 101 103 102 105 103 96 100 108 108 103 102 102 102 102 99 96 95 92 93 93 94 99 102 101 100 100 102 103 100 102 106 108 109 107 99 92 91 93 88 81 73 62 64 69 52 44 68 78 80 95 99 89 81 67 53 45 37 33 36 38 40 43
103 105 106 105 101 101 104 104 104 103 100 95 87 74 64 61 64 73 79 70 55 55 71 83 87 95 102 101 102 104 98 93 101 107 105 102 102 102 101 99 97 97 96 96 96 95 96 103 106 104 103 105 105 102 98 98 103 106 109 110 105 100 96 95 91 87 77 61 60 66 56 56 79 89 92 100 95 83 74 62 53 46 40 39 40 41 43 43
100 102 103 102 100 102 104 103 101 99 95 85 73 60 53 59 70 77 72 58 52 62 78 86 89 95 99 100 104 102 92 94 104 106 104 101 100 99 97 97 98 98 99 99 97 96 99 104 106 103 103 107 107 102 98 98 101 106 109 107 105 103 100 97 97 94 79 62 56 61 65 75 89 93 95 93 82 71 65 55 48 43 39 38 37 38 39 38
96 99 98 96 97 99 97 95 94 93 85 71 57 49 51 62 73 71 60 53 58 68 78 85 89 96 102 105 104 95 90 98 106 104 102 101 99 98 98 99 101 101 101 100 97 99 102 104 104 102 104 108 107 102 98 98 101 106 108 105 103 105 103 100 100 94 77 62 56 58 71 88 97 96 94 86 74 66 59 49 41 36 33 31 31 33 34 34
95 97 95 91 92 92 88 84 82 76 64 50 44 46 55 64 66 59 53 57 64 69 77 87 92 98 106 106 96 90 93 101 104 101 100 99 98 99 99 101 103 102 101 100 100 103 103 100 101 101 103 107 107 102 99 100 103 105 107 107 105 106 104 99 96 87 71 62 61 64 76 93 100 96 89 81 71 63 53 42 34 31 30 29 30 33 35 35
85 87 85 82 81 77 70 63 57 51 42 37 41 50 58 61 57 54 55 61 68 73 81 91 96 102 108 101 90 93 100 102 101 99 97 96 98 99 100 102 102 101 100 100 102 102 99 97 100 100 100 104 106 104 101 100 102 105 108 109 107 103 99 94 90 81 68 64 68 74 84 96 99 92 83 76 68 58 47 37 32 32 31 30 32 34 35 34
65 65 63 60 55 48 41 36 34 35 34 36 44 52 53 52 53 57 60 65 72 80 88 95 100 106 105 94 90 100 104 102 101 98 95 97 100 100 100 101 101 101 100 101 101 100 97 98 101 100 99 103 106 104 102 102 102 105 107 107 103 99 94 91 86 75 66 67 75 84 93 99 96 86 77 72 66 57 47 39 34 33 32 32 33 33 32 29
37 36 33 30 27 24 24 26 28 32 35 37 42 45 46 53 59 61 65 72 78 87 94 97 102 105 99 90 95 103 102 100 100 97 97 101 102 100 101 101 101 102 102 101 99 97 97 101 105 102 99 102 105 103 101 103 104 104 106 105 102 99 94 90 81 69 66 73 83 91 98 98 89 77 68 64 60 55 48 40 34 32 31 30 31 30 28 26
Wind_Speed
63 60 55 52 50 50 50 50 50 51 53 53 53 53 54 54 54 55 56 57 59 60 61 62 64 65 66 67 67 68 70 71 70 68 65 63 62 61 60 59 57 55 53 51 48 46 45 44 42 41 40 40 40 41 42 43 43 44 44 45 46 46 47 47 48 49 51 52 53 54 54 55 56 57 59 60 62 63 63 65 65 65 65 65 65 65 66 66
60 63 60 55 52 51 51 50 50 52 53 55 55 55 54 54 55 56 57 58 59 60 62 63 64 65 66 67 68 70 71 70 67 64 62 60 59 58 56 55 53 51 50 48 46 44 43 41 40 39 39 39 40 40 41 43 45 47 48 49 50 51 52 52 53 54 56 57 57 58 58 59 60 61 61 63 64 66 67 68 68 68 69 69 69 70 70 70
54 60 62 59 55 53 52 51 51 52 53 53 53 53 53 54 55 56 57 58 60 61 62 63 64 65 67 69 70 70 68 65 63 61 59 57 56 54 52 51 49 48 46 45 43 41 40 39 39 39 39 40 41 40 41 42 44 46 48 50 52 53 54 56 57 58 59 60 61 62 63 64 65 66 67 67 68 70 71 71 71 72 73 74 74 75 75 75
50 54 59 61 59 57 55 54 53 53 53 53 53 54 55 56 57 57 58 59 60 61 62 63 64 66 67 68 67 65 62 60 58 56 54 53 52 50 49 47 46 44 43 41 40 40 39 40 40 40 41 42 42 42 42 44 45 47 48 49 51 53 55 57 58 59 61 62 64 65 67 68 69 70 71 72 73 74 75 75 75 77 78 78 79 79 79 79
48 49 53 57 59 59 58 57 56 55 54 54 54 55 55 56 56 57 58 59 60 61 62 63 64 64 63 62 61 59 57 55 53 51 50 49 48 47 46 44 43 42 41 40 40 40 41 41 42 41 42 43 44 44 45 47 49 51 52 53 55 57 58 60 61 62 64 65 67 68 69 71 71 72 73 74 75 75 75 76 77 78 79 80 80 80 81 81
48 49 50 51 54 55 56 55 53 52 51 51 52 52 53 54 55 56 58 59 59 60 60 59 58 58 57 56 55 53 51 49 49 47 46 46 45 44 43 42 42 41 41 41 41 42 42 43 44 44 45 46 48 48 50 52 53 56 58 58 60 62 63 64 64 65 65 66 67 68 68 69 70 70 71 72 72 71 72 73 74 74 75 76 77 78 78 79
45 47 46 47 49 50 49 49 50 49 48 49 49 50 51 52 53 54 55 55 55 54 54 53 53 53 52 50 48 48 47 46 46 45 44 43 43 43 42 42 42 42 42 42 43 44 45 46 47 48 49 50 51 53 54 56 57 59 60 61 62 63 63 64 64 64 64 64 64 65 65 65 65 66 67 68 67 66 67 69 69 69 70 71 72 73 73 74
39 40 41 42 44 44 45 45 47 47 47 47 47 48 49 50 50 50 50 49 49 49 49 48 47 46 45 44 44 45 45 44 44 43 42 42 42 43 43 43 44 44 44 45 46 46 47 48 49 50 51 53 54 55 57 58 59 60 61 62 63 63 63 64 64 63 63 62 62 62 62 62 62 62 63 64 62 62 63 64 65 66 67 67 68 69 70 71
34 35 36 38 39 39 40 41 42 43 43 43 44 44 45 45 46 46 46 46 45 44 43 42 41 41 41 43 44 44 44 43 43 42 42 41 42 43 43 44 44 45 45 46 46 47 48 49 51 52 54 55 56 58 59 60 61 61 62 63 64 64 64 63 63 62 62 61 61 60 61 61 61 60 60 61 60 61 63 64 66 66 67 67 68 69 70 70
32 32 33 34 35 36 37 37 38 39 39 39 40 40 42 42 43 43 42 42 41 40 39 38 39 40 42 44 44 44 43 42 42 42 41 41 42 43 44 44 45 45 46 47 48 49 51 53 54 55 57 58 59 59 60 60 61 62 63 63 63 63 63 63 62 62 61 61 60 60 61 62 61 59 60 61 62 63 65 66 67 68 68 69 70 71 71 72
30 30 30 31 33 34 35 35 35 36 37 37 38 39 40 41 40 39 38 38 37 37 37 38 40 42 44 44 43 42 42 41 41 41 42 42 43 44 44 45 45 46 48 49 51 52 54 56 57 57 58 59 59 59 60 60 60 61 61 61 61 61 62 62 61 61 61 61 60 60 62 64 62 59 61 63 64 66 67 68 68 69 69 70 71 71 72 72
29 29 30 31 32 33 34 34 34 35 36 37 38 38 38 38 37 36 35 35 35 36 37 40 42 44 43 43 41 41 41 41 41 42 42 43 44 44 45 46 47 48 50 52 53 54 55 56 57 57 58 58 58 58 59 59 59 59 59 59 60 61 61 61 61 62 61 61 62 61 64 67 63 60 63 64 66 67 67 67 67 68 68 69 69 70 70 71
30 30 31 32 32 32 33 33 33 34 35 36 36 36 36 35 34 34 34 34 35 37 40 42 43 42 42 41 41 40 40 41 42 43 44 44 45 45 46 47 48 50 51 52 54 54 55 55 56 56 57 57 57 57 57 58 58 58 58 59 60 60 60 60 61 62 62 62 63 62 65 68 64 62 64 65 65 66 66 66 66 67 67 67 68 68 68 68
29 30 31 31 31 31 32 32 33 34 34 34 34 34 34 33 33 33 34 36 37 39 42 42 41 40 40 40 40 40 41 41 42 43 43 44 45 46 47 48 49 50 51 53 53 54 54 55 55 56 56 56 56 56 56 57 57 58 58 58 58 59 60 60 61 62 62 63 63 63 65 67 64 63 64 65 65 65 65 64 64 65 65 65 65 65 65 65
30 30 30 30 30 30 31 31 32 32 32 31 32 32 33 33 33 35 36 37 39 40 41 40 39 39 39 39 40 40 41 41 42 42 43 45 46 47 48 49 50 51 51 52 53 53 54 54 55 55 55 55 55 55 55 56 56 56 56 57 57 59 59 60 61 61 61 62 62 62 64 65 63 63 63 64 64 64 63 62 62 62 62 62 62 62 62 62
30 30 30 30 30 30 31 31 31 31 30 31 32 33 34 35 36 36 37 38 39 39 39 38 38 39 39 39 40 41 41 42 43 44 45 46 47 48 49 49 50 50 50 51 52 52 53 53 54 54 54 54 54 54 54 54 55 55 56 56 57 57 58 58 59 60 60 61 60 61 63 63 62 61 60 61 61 61 60 59 59 59 59 60 60 60 60 61
30 30 30 30 30 31 31 31 31 30 31 32 33 34 35 36 36 36 37 38 38 37 37 38 38 38 39 40 40 41 42 43 44 45 46 46 47 47 48 48 48 48 49 50 51 51 51 52 52 52 52 53 53 53 53 54 54 55 55 55 55 55 56 57 58 58 59 59 59 59 61 61 59 58 57 57 58 58 57 57 57 57 58 59 59 59 60 60
30 30 30 30 30 31 30 30 30 31 32 33 34 35 35 35 35 36 37 36 36 36 37 37 38 39 40 41 42 43 44 44 44 45 45 45 45 45 46 46 46 47 48 48 49 49 49 50 50 51 52 52 53 53 53 53 53 53 53 54 54 54 54 56 56 57 57 57 57 57 58 58 57 57 56 55 55 56 57 57 57 57 58 59 59 60 60 60
30 30 30 30 30 30 30 30 31 32 33 34 34 34 33 34 35 35 35 35 35 35 36 37 38 39 40 41 42 43 43 43 43 43 43 43 44 44 44 45 45 45 46 46 46 46 47 49 50 50 51 51 52 52 52 52 52 52 52 52 53 52 52 53 54 54 54 55 55 55 55 55 56 56 56 55 55 55 56 57 57 58 59 60 61 61 61 61
30 30 30 30 30 30 30 31 32 33 34 34 33 32 33 34 34 33 33 33 34 34 34 35 36 37 39 40 40 41 41 41 41 41 42 42 43 43 43 44 44 44 44 44 44 45 46 48 49 50 50 51 51 51 51 50 50 50 51 51 51 52 51 51 51 51 51 52 54 54 54 53 54 54 55 55 54 54 55 56 57 58 59 60 61 62 62 63
30 30 29 29 30 30 31 32 33 33 33 33 32 32 33 33 32 32 32 32 32 32 33 33 35 36 37 38 38 39 39 39 39 40 40 41 42 42 42 43 42 42 42 43 43 44 46 48 49 50 50 50 50 50 50 49 49 49 49 49 49 50 50 50 49 49 49 50 51 53 53 53 53 53 53 53 53 53 54 55 56 57 59 60 61 62 62 63
30 29 29 30 31 32 33 33 33 33 33 32 32 32 32 32 31 32 31 31 32 32 32 33 34 35 36 37 37 37 37 37 38 39 40 40 41 41 41 41 41 41 42 42 43 44 45 47 48 49 49 49 49 49 48 48 48 47 47 47 47 48 49 49 48 47 47 48 49 51 53 53 53 52 51 52 53 52 53 54 54 56 58 59 60 60 61 62
30 30 30 31 32 33 33 33 33 33 33 32 32 32 32 31 31 32 32 32 32 32 32 33 34 35 36 36 36 36 36 37 37 38 39 39 40 40 40 40 41 41 41 42 43 44 45 46 46 47 47 47 47 47 46 46 46 46 46 46 46 47 48 49 49 48 47 47 48 50 53 54 53 52 51 51 52 52 52 53 53 54 56 57 58 59 59 60
30 30 31 32 33 33 33 33 34 34 33 32 32 32 32 32 32 32 33 33 33 34 34 34 34 35 36 36 36 36 36 36 37 38 38 39 39 39 40 40 41 41 42 43 44 45 45 45 45 45 45 45 45 44 44 44 44 44 44 45 45 45 46 47 48 49 49 48 47 48 52 56 55 53 53 52 52 52 53 53 54 54 56 58 58 59 58 59
31 31 32 33 33 33 33 34 34 33 33 32 33 33 33 33 34 34 34 34 35 35 35 34 35 36 36 36 36 36 36 37 37 38 38 39 39 39 40 41 41 41 42 43 44 45 46 45 45 44 44 44 43 43 43 42 42 42 43 43 44 45 45 46 46 48 49 49 49 48 49 55 57 54 53 54 53 54 54 54 55 56 57 58 59 59 59 60
31 31 32 33 33 33 34 34 34 33 33 33 33 34 35 35 36 36 36 35 36 36 35 35 36 37 36 36 36 37 37 37 38 38 39 39 40 40 40 41 42 42 43 44 46 46 46 46 46 45 45 45 45 44 44 44 43 43 44 44 44 45 46 47 47 48 50 51 52 51 50 52 57 56 54 54 54 54 55 55 55 56 56 57 57 57 58 60
31 32 32 33 34 34 34 34 34 34 33 33 34 35 36 37 38 38 37 36 36 36 36 36 37 37 36 36 37 37 37 38 38 39 39 40 40 41 41 42 42 43 45 46 47 48 47 47 47 47 47 47 47 47 47 46 46 46 46 46 46 46 47 48 48 49 50 52 52 53 52 52 57 57 53 52 52 53 54 54 54 55 56 56 56 56 57 58
32 33 33 34 34 34 34 34 34 34 34 34 35 36 37 38 39 39 38 37 37 36 36 37 37 37 37 37 37 37 38 39 39 39 40 41 41 42 42 43 44 45 47 48 49 49 48 48 48 48 48 48 48 48 49 49 48 48 48 48 48 48 49 49 50 50 51 52 53 55 55 54 58 60 54 50 50 51 53 54 54 55 55 56 55 55 55 57
33 34 35 35 35 35 35 35 35 35 35 35 36 36 38 39 40 40 39 39 38 37 37 37 37 37 37 37 38 38 39 39 40 40 41 42 43 43 43 44 45 46 49 50 51 51 50 49 49 49 49 49 50 50 50 50 51 51 51 51 51 51 51 52 52 52 52 53 54 56 57 56 58 63 60 54 51 52 53 54 55 56 56 55 55 55 56 57
35 35 36 36 36 35 36 36 36 36 36 36 36 37 39 40 40 40 40 40 39 39 39 38 38 38 38 39 39 40 40 40 41 41 42 43 43 44 44 45 46 47 50 52 53 52 51 51 50 51 51 51 51 52 52 52 52 53 52 52 52 52 52 52 53 53 52 53 53 55 57 58 59 62 63 61 56 54 54 53 55 57 58 56 55 55 57 59
36 36 36 36 36 37 37 37 37 37 37 37 38 38 39 40 40 41 41 41 40 40 40 39 39 39 40 40 41 41 41 41 41 42 43 44 44 45 45 46 47 49 51 53 54 54 53 53 53 53 53 53 54 54 54 55 55 55 55 54 54 52 51 52 53 53 52 53 53 54 55 56 58 61 63 65 63 59 57 56 56 59 60 60 58 58 60 62
36 37 37 37 38 38 38 38 39 39 39 39 38 39 40 41 41 41 41 41 40 40 40 40 41 41 42 42 42 42 41 41 42 43 44 45 45 45 46 47 48 50 53 55 57 57 56 55 55 55 56 56 56 57 57 57 58 58 58 58 57 55 52 51 52 52 52 52 52 54 54 54 57 60 62 66 65 63 62 61 60 62 63 63 63 63 65 66
36 37 38 38 39 39 39 40 41 41 40 39 39 40 41 42 42 41 41 41 41 41 42 43 43 43 43 43 42 42 42 42 43 44 45 46 46 46 46 47 48 50 53 56 58 59 59 59 59 59 60 60 60 60 60 60 60 61 62 62 61 60 56 52 52 52 52 52 52 55 55 54 57 60 63 67 66 64 65 65 65 66 67 67 68 69 69 71
37 38 38 39 40 40 41 41 41 41 40 39 39 41 42 42 43 43 43 43 43 44 44 45 45 45 43 43 42 42 42 42 43 45 46 46 46 46 47 47 49 51 54 56 57 59 60 61 62 62 63 64 64 64 64 63 63 64 65 65 65 65 62 58 56 55 53 52 52 55 55 56 58 60 65 68 67 67 68 68 68 68 70 71 71 72 73 74
37 38 39 39 40 41 41 41 41 41 40 40 41 42 42 43 44 44 44 45 46 46 46 46 46 45 44 43 42 42 42 43 44 45 46 46 46 46 47 48 50 52 54 56 56 57 59 62 64 65 66 67 66 67 67 66 65 66 67 67 67 67 66 64 61 60 58 54 54 55 56 57 58 61 67 70 68 69 69 69 70 71 72 73 73 74 74 75
37 38 39 40 40 41 41 41 41 41 41 41 42 43 44 45 45 45 46 47 48 48 47 47 47 45 44 43 42 42 42 43 45 46 47 46 46 47 48 49 51 53 55 56 56 56 57 61 65 67 68 69 69 69 70 70 69 69 70 70 70 69 69 68 66 65 64 60 57 57 58 58 60 64 69 71 70 69 70 71 73 73 74 75 75 74 74 74
38 39 40 40 41 41 41 41 41 41 42 43 44 45 46 47 47 48 49 50 50 49 48 49 48 46 44 43 43 43 43 44 46 47 47 46 46 47 49 51 52 55 56 56 56 56 55 57 63 67 69 71 71 71 72 73 73 73 73 73 73 71 70 70 69 68 67 64 60 60 60 61 63 68 71 71 70 71 72 74 74 74 74 74 74 74 74 75
39 40 41 42 43 42 42 42 42 43 44 44 45 46 47 49 49 50 51 51 51 50 50 50 49 46 45 44 43 43 44 45 47 48 47 47 47 48 50 52 55 56 57 58 57 57 55 55 59 64 68 70 71 71 72 73 73 74 74 76 76 75 73 72 71 71 71 69 65 63 63 64 68 74 74 71 71 73 73 73 73 73 73 73 74 75 76 77
40 41 42 44 44 45 44 44 44 45 46 46 47 48 49 51 52 53 53 53 52 51 51 51 49 47 45 44 44 44 45 46 48 48 48 48 48 49 51 54 56 57 58 59 58 57 57 55 57 62 66 69 70 70 71 72 73 73 75 77 77 77 76 74 74 75 75 75 72 68 64 65 72 79 76 73 73 73 73 72 73 73 74 75 76 76 76 76
41 42 44 45 46 47 47 47 47 48 49 49 50 51 52 53 54 55 54 54 52 52 53 52 50 47 45 45 45 45 46 47 49 49 49 49 49 51 53 55 57 58 59 59 59 57 57 57 58 62 65 67 69 71 71 71 72 74 75 77 78 78 78 76 75 77 79 79 79 76 68 68 78 83 78 76 76 74 74 75 76 77 79 79 79 77 76 74
44 45 46 48 49 49 50 50 50 51 52 52 53 54 55 56 56 56 55 54 53 53 54 53 50 47 45 45 46 46 47 49 50 50 50 51 51 52 55 57 58 59 59 59 60 59 59 59 60 62 64 66 68 71 71 72 73 74 76 77 79 79 80 79 78 78 80 81 83 82 74 72 81 84 80 79 78 77 78 80 81 83 83 83 81 78 76 74
46 47 48 50 51 52 52 52 53 53 54 55 56 57 57 58 57 57 56 55 54 54 54 52 49 47 46 46 47 46 48 50 51 51 51 52 54 54 56 58 59 60 60 60 61 61 61 62 62 62 63 65 68 70 71 72 73 74 76 78 80 81 82 82 81 80 80 81 84 85 80 77 82 84 81 80 80 81 83 84 86 87 85 83 81 78 76 75
47 48 49 51 52 54 54 54 55 56 57 58 59 59 59 59 58 58 56 55 54 54 53 51 49 47 46 47 47 47 48 50 51 52 53 53 55 57 59 60 61 61 61 61 62 63 63 64 64 62 61 63 66 69 72 72 73 74 77 80 81 82 83 83 84 83 81 81 84 86 84 81 83 84 83 82 84 86 88 89 89 88 86 84 81 79 78 78
49 50 51 52 54 55 56 56 57 57 58 59 60 60 60 59 58 58 57 56 54 53 52 50 48 47 47 48 48 49 49 49 49 51 54 55 56 59 60 62 62 63 63 63 63 64 64 66 67 66 64 64 66 69 70 71 72 74 77 80 82 83 84 84 85 85 83 82 84 88 88 84 84 87 85 85 88 90 92 92 92 90 87 85 83 82 82 81
51 52 52 53 55 56 57 58 58 59 59 60 61 61 60 59 58 57 57 56 54 52 50 49 48 47 48 49 49 50 50 49 48 50 53 55 57 59 61 62 63 64 64 64 64 65 64 65 68 69 69 69 71 73 73 72 73 76 79 82 84 85 86 86 87 88 87 85 85 89 90 84 84 88 88 89 92 93 93 93 92 90 89 87 85 84 84 84
53 54 54 55 56 57 58 59 59 60 60 61 61 60 59 58 57 57 57 56 54 51 49 48 48 48 49 50 50 51 51 49 49 50 54 56 58 60 61 62 63 64 64 65 66 66 64 65 68 70 70 73 75 77 77 76 77 79 81 84 87 88 88 89 90 90 91 88 86 88 90 86 85 88 89 91 94 94 94 93 91 90 89 88 86 86 85 84
55 55 56 56 57 58 59 60 60 61 62 62 61 60 58 57 56 56 56 55 53 50 48 48 48 48 50 50 49 51 51 50 50 53 55 57 59 60 62 62 63 64 65 66 67 67 66 66 68 69 70 73 76 78 78 79 80 81 84 86 88 89 90 91 92 93 93 92 88 87 89 88 88 90 91 93 94 94 94 93 91 89 88 87 85 84 84 83
56 56 57 57 58 59 60 61 61 62 62 62 60 59 57 56 55 56 56 54 52 49 47 48 48 48 49 49 49 50 50 49 52 54 56 59 60 61 62 62 63 64 66 67 67 68 68 67 69 70 70 73 77 78 79 80 81 83 86 88 89 90 91 91 92 94 94 93 91 88 87 88 90 92 94 95 95 94 93 92 90 89 88 86 85 84 84 84
57 58 58 59 60 60 61 61 62 62 62 61 59 57 56 55 55 55 55 53 51 48 47 48 49 48 49 49 50 50 50 50 53 55 57 59 61 62 62 62 64 65 66 67 68 69 70 69 70 70 70 73 78 79 80 82 83 85 88 90 90 91 92 92 92 93 94 93 92 90 88 89 92 94 95 96 96 95 93 91 90 90 89 87 86 86 86 85
58 59 59 60 61 61 61 61 61 61 60 59 57 56 55 55 55 54 54 52 50 48 47 48 49 49 49 50 50 50 51 52 54 56 58 59 61 62 62 62 64 65 66 67 68 70 72 72 72 72 71 73 78 80 81 83 84 86 89 91 91 92 92 92 92 93 93 92 91 91 90 91 94 96 97 97 97 95 94 92 91 92 91 90 88 88 87 86
58 59 59 60 61 60 60 60 59 59 58 56 55 54 55 54 54 54 53 51 49 49 48 49 49 48 49 50 50 50 52 54 56 58 59 61 62 62 63 63 64 65 66 68 69 71 74 74 75 75 74 74 78 81 82 84 86 88 90 92 92 92 92 92 93 93 93 91 91 91 91 93 95 97 97 97 97 95 94 93 93 92 91 90 90 88 87 85
58 58 59 59 59 58 58 57 57 56 56 54 53 54 53 53 54 54 52 51 49 49 49 49 48 48 50 51 50 51 54 56 58 60 61 62 63 63 64 65 66 67 67 69 71 73 75 77 77 78 77 77 80 83 84 86 88 90 92 93 93 93 93 93 93 93 93 92 91 91 93 95 97 98 97 96 95 94 93 93 93 92 90 89 88 88 87 86
Wind_Direction
209 212 215 216 218 220 223 227 230 232 234 236 237 240 243 246 251 254 258 261 263 265 266 268 270 272 274 276 278 280 283 285 286 287 288 288 289 290 291 292 292 292 291 290 288 286 285 285 284 282 281 279 277 275 273 273 273 272 272 273 273 273 273 272 272 272 272 271 271 271 271 270 269 268 268 268 268 268 267 267 267 268 268 268 268 268 268 267
212 213 215 218 220 221 224 227 231 234 236 238 240 242 246 250 255 258 260 262 264 265 267 269 271 273 275 277 279 282 284 285 285 286 287 288 288 289 290 291 291 290 289 288 286 284 283 283 282 282 281 280 279 277 275 273 272 272 272 272 272 273 273 273 273 272 272 273 272 272 272 272 271 270 270 269 269 268 268 268 268 269 268 269 269 268 268 267
213 215 217 219 222 224 226 228 232 235 237 240 242 245 249 253 256 259 261 263 265 266 268 271 273 275 277 279 281 282 283 284 285 286 287 288 289 290 290 290 289 288 287 286 285 283 282 282 281 281 282 282 282 281 279 277 275 274 273 273 273 272 273 273 273 273 273 273 273 273 272 272 272 272 271 271 270 270 269 270 270 270 270 270 269 269 268 268
213 216 218 220 223 225 228 230 233 235 238 241 245 248 252 255 258 260 263 265 266 268 270 273 275 277 278 279 281 281 282 283 285 286 287 289 289 289 289 288 287 286 285 284 283 283 283 283 283 283 283 283 283 282 281 280 279 277 276 275 275 274 274 274 274 274 274 274 274 274 274 274 273 273 272 272 271 270 270 271 271 270 270 270 270 270 269 269
213 216 219 221 224 227 230 233 235 238 242 245 249 252 254 257 259 262 264 266 268 270 272 274 275 276 277 278 279 280 282 283 285 287 288 288 288 287 286 285 284 284 283 283 283 283 283 283 283 283 283 282 281 280 279 279 279 278 278 277 277 276 276 276 276 276 276 276 276 276 276 276 275 275 274 273 272 272 272 272 271 270 270 270 270 270 269 269
216 218 220 222 226 229 232 235 238 242 245 248 251 253 256 258 260 263 265 267 269 271 272 273 274 275 276 277 279 280 282 284 286 287 288 287 286 285 284 283 283 283 283 283 283 283 283 283 283 282 281 280 280 280 279 279 279 279 279 279 279 279 279 279 279 278 278 278 277 277 277 276 276 275 275 274 274 274 274 273 272 271 271 270 270 269 268 268
219 222 224 227 229 232 235 238 241 243 246 249 252 255 257 259 262 264 266 268 270 270 271 272 273 274 276 278 281 283 285 287 287 288 287 286 284 282 281 282 282 282 282 283 284 284 284 284 284 283 283 283 283 283 283 283 283 283 283 282 282 282 282 282 282 281 281 280 280 279 278 277 277 276 276 275 275 276 275 274 273 273 272 271 270 269 268 268
225 226 228 231 233 235 237 240 243 245 248 250 253 256 258 260 262 264 266 268 269 269 271 272 273 276 279 283 285 287 289 289 288 287 286 284 282 281 281 282 282 282 283 284 285 286 286 286 286 286 286 286 287 287 287 287 287 287 286 286 285 285 285 285 284 284 283 282 282 281 280 279 278 278 277 277 277 277 276 276 276 274 273 272 271 270 270 268
227 228 229 231 234 236 238 241 243 246 248 251 253 256 258 261 263 265 266 267 268 270 272 275 279 283 287 288 289 290 289 288 286 285 284 282 281 281 282 283 283 284 285 287 288 288 289 289 289 289 289 290 290 290 289 289 289 289 288 288 287 287 287 286 286 285 285 284 284 283 283 282 280 280 279 279 280 279 279 278 277 276 276 275 274 273 272 270
224 226 228 231 234 236 238 241 244 248 250 252 255 257 259 262 264 267 269 271 273 275 279 284 287 290 290 290 289 289 287 286 284 284 283 282 282 283 284 285 286 288 289 290 290 291 291 291 291 291 291 291 290 290 290 289 289 289 288 288 288 288 288 288 288 287 287 286 286 286 285 283 282 282 282 282 282 280 279 278 278 278 277 277 276 275 273 272
222 227 230 233 237 239 241 243 246 250 253 255 257 259 261 263 266 269 272 275 278 282 286 289 291 290 289 288 287 286 284 283 282 282 282 283 284 285 287 288 290 291 291 291 291 291 291 291 291 291 291 290 290 290 290 290 289 289 289 289 289 289 289 289 289 289 288 288 287 287 286 284 283 283 283 282 281 280 279 278 278 278 277 276 275 275 274 273
224 228 232 236 239 243 245 247 248 250 253 256 259 261 264 267 269 272 275 279 282 285 288 289 290 289 288 287 286 284 282 282 282 282 282 284 286 287 289 290 291 291 291 291 291 291 291 291 291 291 291 291 291 290 290 290 290 290 290 290 290 290 290 290 290 289 289 288 287 287 286 284 284 284 283 281 280 280 279 279 278 278 277 276 275 275 274 273
227 230 234 237 240 243 246 248 250 252 255 258 261 264 267 270 273 276 278 281 283 286 287 288 287 287 286 286 286 285 284 283 283 284 285 286 287 289 290 290 291 291 291 291 291 291 291 291 291 292 292 292 292 292 292 292 292 292 292 291 291 291 291 290 290 289 288 288 287 287 285 285 286 285 284 283 282 281 280 280 279 279 278 277 276 275 274 274
229 232 235 237 239 242 246 249 252 254 257 261 264 267 270 273 276 278 279 281 283 285 285 286 286 286 286 287 287 286 286 286 286 286 287 288 288 290 290 291 292 292 292 292 292 292 293 293 293 294 294 294 294 294 294 293 293 292 292 292 291 291 291 290 290 289 289 288 288 287 286 286 287 286 285 284 283 282 281 281 280 279 279 278 277 276 275 275
229 232 234 237 239 242 245 249 252 256 259 262 265 268 271 273 275 277 279 282 283 284 285 285 286 287 288 288 287 287 287 288 289 289 289 290 291 292 293 293 293 293 293 294 294 294 295 295 295 295 294 294 294 294 293 293 293 293 293 293 292 292 292 291 291 290 290 289 289 289 287 287 288 287 286 285 284 283 282 281 281 280 279 278 277 277 276 276
230 232 235 238 240 243 246 249 252 255 257 260 262 265 268 271 274 277 281 283 284 284 285 286 287 288 288 288 287 288 289 289 290 290 291 292 293 293 294 294 294 294 294 295 295 295 295 295 294 294 294 295 295 295 295 295 295 295 295 294 294 294 293 293 292 292 291 291 290 290 289 289 288 287 286 285 284 283 283 282 281 280 280 279 278 278 277 277
232 234 237 239 242 244 246 249 251 253 255 258 261 264 268 272 277 280 282 283 284 285 286 288 288 288 288 288 288 288 289 289 290 291 292 292 292 293 293 293 294 294 295 295 295 294 295 295 296 296 297 297 298 298 298 298 297 297 297 296 296 295 295 294 294 293 293 292 292 291 290 289 289 288 286 285 284 284 283 283 282 281 280 280 279 278 278 277
235 236 239 240 243 245 247 248 250 253 256 259 263 267 272 276 279 281 282 284 285 287 288 288 288 288 288 288 288 288 288 289 290 290 291 292 292 293 293 293 294 294 294 294 295 296 297 299 299 300 300 300 300 300 299 299 299 298 298 297 297 297 296 295 295 295 294 293 293 292 291 291 290 289 288 287 286 286 286 285 284 283 282 281 280 279 278 277
237 238 239 241 243 245 247 249 251 254 258 262 266 271 275 278 280 281 284 286 288 289 289 289 289 288 288 288 288 289 290 290 290 291 292 292 293 293 294 294 294 294 295 296 298 300 301 301 301 301 301 301 301 301 301 301 301 300 300 299 298 298 297 296 296 296 296 295 294 293 292 292 290 290 289 289 288 288 288 287 287 286 285 284 283 282 281 280
237 238 239 241 243 245 247 250 253 256 260 265 269 273 277 279 281 284 287 290 291 291 291 290 290 288 288 289 290 291 291 291 292 292 293 293 294 295 295 296 297 298 299 301 302 303 303 303 302 302 303 303 304 304 304 303 302 302 301 300 299 299 298 297 297 297 297 296 296 294 293 292 290 290 290 290 290 289 288 287 287 287 286 285 285 284 283 283
236 237 239 241 244 246 249 252 255 259 263 268 272 276 279 281 284 288 290 292 292 292 292 291 289 289 291 292 293 293 293 293 293 294 295 295 297 297 298 299 300 302 303 304 304 305 305 305 305 306 306 306 306 306 305 305 304 303 302 301 301 300 300 299 299 299 298 298 297 296 296 294 293 293 292 292 291 290 289 288 288 287 286 286 285 285 285 285
235 237 239 241 244 248 251 254 258 263 267 271 275 278 281 283 286 289 290 291 291 293 293 291 291 292 294 295 295 295 295 295 296 297 298 298 300 300 301 302 303 304 305 306 306 307 307 308 308 308 309 308 308 308 307 306 305 304 303 303 302 302 301 301 301 300 300 299 298 298 297 296 296 296 295 294 293 292 291 290 289 288 287 286 285 285 286 285
234 236 239 243 246 249 253 257 261 265 269 274 277 279 281 284 287 288 290 291 293 294 294 293 293 295 296 297 298 298 298 298 299 300 300 301 302 302 303 304 305 306 307 308 309 309 310 310 310 310 310 310 309 309 308 308 307 307 306 305 305 305 305 304 304 303 302 300 300 299 298 297 296 296 295 294 293 293 292 291 290 289 289 288 288 288 288 288
234 237 241 244 248 251 255 259 263 267 272 276 278 279 282 285 287 288 291 293 295 296 295 295 294 296 298 300 300 300 300 301 302 302 303 304 304 305 306 307 308 309 310 311 312 312 313 313 312 312 311 311 311 311 310 310 310 310 310 309 309 308 307 306 305 304 303 302 300 300 299 297 297 297 296 295 295 294 294 293 292 291 290 290 290 290 290 290
236 240 243 246 250 253 257 261 265 270 274 277 278 278 281 284 287 289 292 295 296 297 297 296 297 298 300 301 301 301 302 303 304 305 306 306 307 308 309 309 310 311 312 313 314 315 316 315 315 314 314 314 313 313 312 312 312 312 312 312 311 310 308 307 307 306 306 305 304 303 302 301 300 300 300 299 299 298 297 296 294 293 292 291 290 290 290 289
239 242 246 249 252 255 259 264 268 273 276 278 278 279 281 285 287 290 293 295 297 298 298 299 299 300 302 302 302 303 304 305 306 308 308 309 309 310 310 311 311 312 314 315 317 318 317 317 318 318 318 317 317 316 316 316 316 316 316 316 315 314 313 312 311 310 309 309 308 307 306 303 302 302 302 302 301 300 298 297 296 295 294 294 294 294 293 292
240 244 248 251 254 258 263 267 272 275 278 280 281 282 284 287 289 290 293 296 299 300 301 301 301 302 303 303 303 304 305 306 308 310 310 311 312 311 312 312 313 314 316 317 318 319 319 320 321 321 321 321 321 321 321 320 320 320 320 319 318 317 316 315 314 314 313 312 311 310 308 307 303 302 302 302 301 300 298 298 297 297 298 298 298 298 297 296
241 245 249 253 257 261 266 270 274 277 280 281 282 283 285 287 289 290 293 297 301 304 305 303 302 303 304 304 305 305 307 308 310 311 312 313 313 313 313 313 314 316 317 319 320 321 322 322 322 323 323 323 323 324 324 323 323 322 322 321 320 319 318 318 317 317 316 315 315 313 312 311 308 305 304 304 303 302 301 301 301 300 300 299 299 299 298 297
242 246 250 255 259 263 268 272 275 278 281 282 283 283 285 288 289 291 293 297 302 306 307 305 303 303 304 305 306 307 308 310 311 312 312 314 314 314 314 314 316 317 318 320 321 322 323 323 323 324 324 324 325 325 325 325 324 323 323 322 321 321 320 319 319 319 319 318 318 317 315 315 312 309 308 307 305 304 303 303 302 301 299 298 298 298 297 295
244 248 252 256 261 265 268 272 275 279 282 283 283 283 285 288 291 292 295 297 301 305 307 306 304 303 304 305 307 308 310 311 312 312 313 314 314 314 314 315 316 317 318 320 321 322 323 323 323 324 325 325 325 325 325 325 324 323 323 322 321 321 321 320 319 319 320 319 319 318 316 316 313 309 309 308 306 305 304 304 302 300 299 298 298 297 296 294
245 249 254 258 262 265 269 272 276 279 282 283 283 283 286 289 292 293 295 297 300 304 307 307 304 303 303 305 307 308 310 311 311 312 312 313 313 313 314 315 316 317 318 319 321 322 322 323 324 324 325 325 325 325 324 324 324 323 322 322 321 321 321 320 319 319 320 319 319 317 316 315 312 309 309 308 307 307 307 305 303 301 300 301 301 299 297 295
248 252 255 259 262 266 269 273 277 280 283 283 283 284 287 290 293 294 296 298 300 302 305 307 306 303 303 304 306 307 309 310 310 311 312 313 313 313 313 315 316 317 319 320 321 322 322 323 323 324 325 325 325 325 324 324 324 323 323 322 321 320 320 319 318 319 319 318 319 317 316 315 311 309 309 307 307 308 307 306 304 303 304 304 303 300 298 297
249 253 257 260 264 268 271 274 278 281 283 283 284 286 289 292 295 297 298 300 301 303 306 308 307 304 303 304 305 306 307 309 310 311 312 312 312 312 313 314 316 317 319 320 322 322 323 323 324 325 325 325 325 324 323 324 324 324 323 322 321 320 319 319 318 317 317 317 318 316 315 315 311 309 308 305 306 307 306 306 306 306 306 304 302 300 299 298
252 256 260 264 268 271 274 277 279 281 283 283 285 288 291 294 297 299 301 303 303 305 307 308 307 305 304 304 304 305 307 308 309 311 312 311 311 311 312 313 315 316 318 319 321 322 322 322 323 324 324 324 324 324 323 323 324 324 323 322 322 321 320 320 318 317 317 318 318 316 315 314 311 309 306 304 305 306 306 307 307 306 303 301 300 299 299 297
257 261 264 268 271 273 276 279 281 282 283 284 286 288 292 295 298 300 302 304 304 306 307 307 307 306 304 304 304 305 306 307 309 311 311 311 310 310 311 312 314 315 317 318 320 321 322 322 322 323 323 323 323 323 323 323 324 324 323 322 322 321 320 320 320 319 317 318 319 316 315 313 311 309 305 303 305 306 307 307 305 303 302 301 301 300 299 298
262 265 267 269 271 274 277 279 281 282 283 284 286 289 293 296 298 300 302 303 305 306 306 307 307 306 304 304 304 304 305 307 309 311 311 310 309 310 310 312 313 314 316 318 319 321 323 322 322 321 322 322 322 323 323 323 324 324 323 322 321 321 320 319 320 320 318 318 319 317 315 313 311 308 304 303 306 307 308 306 304 303 303 302 302 301 300 299
263 266 267 269 270 273 277 280 281 282 283 285 287 291 294 296 298 300 302 303 305 306 306 306 307 306 304 304 303 304 305 307 309 310 310 308 308 309 310 311 312 314 316 317 319 321 323 323 321 320 320 321 322 323 323 323 324 324 323 322 321 320 320 319 320 319 317 317 318 317 316 314 312 307 303 305 308 309 307 305 305 305 304 303 302 302 301 299
263 265 267 269 270 273 277 279 281 282 284 286 289 293 295 297 299 300 301 303 304 305 305 306 307 306 304 303 303 304 305 307 309 310 308 307 308 308 309 311 312 314 316 318 319 320 322 322 320 318 319 320 320 321 322 322 323 323 323 321 320 320 320 320 320 319 317 317 317 317 316 316 313 306 305 309 310 308 307 306 305 305 304 303 303 302 300 299
264 266 268 269 271 273 276 278 281 283 285 288 291 294 297 298 299 299 300 302 304 304 305 306 306 305 303 303 303 304 305 307 308 309 307 307 307 308 310 311 313 315 316 317 319 320 320 320 319 318 318 319 319 320 321 322 322 323 322 321 320 320 320 320 320 319 318 317 317 316 318 319 312 306 308 312 310 309 308 307 306 306 305 304 303 303 302 301
267 268 269 271 272 273 275 278 281 284 286 289 292 294 296 297 298 299 300 301 303 303 304 305 306 304 303 303 303 304 305 307 308 308 307 306 307 309 310 311 313 315 317 317 318 318 318 318 319 318 318 319 319 320 320 321 322 322 321 320 319 319 319 320 320 320 318 318 317 316 321 321 312 308 312 313 311 312 311 309 309 309 309 308 307 306 305 303
267 269 270 271 273 274 276 278 281 284 286 289 291 293 295 296 297 298 300 301 302 302 303 304 304 304 303 303 304 305 306 307 308 307 306 306 308 309 310 312 314 315 316 316 316 317 318 318 319 319 319 319 320 320 320 322 322 322 321 320 319 319 319 319 320 319 318 318 317 317 321 320 313 312 315 314 314 315 313 313 313 313 312 311 310 308 306 304
265 267 269 271 273 275 277 280 282 284 286 288 290 291 293 294 296 298 300 301 301 302 302 303 303 303 303 303 304 305 306 307 308 307 306 307 309 310 312 313 314 315 315 315 316 317 318 319 319 319 320 320 320 319 320 322 323 322 321 319 319 318 318 319 319 318 318 318 317 317 320 318 315 315 316 316 317 316 315 316 315 314 314 312 311 309 308 306
266 267 269 271 274 276 278 280 282 284 285 287 288 290 292 294 296 298 299 299 300 301 302 302 302 303 303 304 304 305 306 307 308 307 307 308 310 312 313 314 314 314 314 315 316 318 319 319 318 319 321 320 320 320 321 322 323 322 320 319 318 317 318 318 318 318 318 318 318 318 319 319 317 316 317 318 318 317 317 317 316 315 314 313 312 312 311 310
268 269 271 272 274 276 278 280 281 283 284 285 287 289 291 294 296 298 298 298 299 300 300 301 302 302 303 304 304 305 306 307 307 307 307 309 311 312 313 314 314 314 315 316 317 318 319 320 319 320 321 321 320 319 320 321 322 320 319 318 317 317 318 318 318 318 319 320 321 319 319 320 319 317 319 320 319 319 319 318 317 316 315 315 314 314 313 313
269 270 272 273 275 277 278 280 281 282 284 285 287 289 292 295 297 297 296 297 298 299 299 299 300 302 303 303 304 305 306 307 307 306 307 310 312 312 313 313 313 314 315 317 317 318 320 321 320 321 322 322 321 320 321 322 323 322 321 319 318 318 319 319 319 319 320 321 322 320 319 321 320 318 321 321 320 319 319 318 318 317 316 316 315 314 314 312
269 270 272 273 275 276 278 279 281 282 284 286 288 290 293 295 296 295 295 296 298 297 297 298 299 301 302 302 303 305 306 307 307 307 308 310 311 311 312 312 313 314 316 316 317 318 320 321 321 321 323 323 321 321 322 324 324 323 322 320 319 320 320 320 320 321 321 322 323 320 319 321 321 320 321 320 319 319 319 318 318 317 316 315 314 313 312 310
268 270 271 273 274 276 277 279 280 282 284 286 289 291 294 295 294 293 294 295 296 296 296 296 298 301 302 302 304 304 306 307 308 309 310 310 311 311 312 313 314 315 315 316 317 318 320 321 321 321 323 322 321 321 322 323 324 324 322 320 320 321 320 321 321 321 321 322 323 321 320 321 321 320 320 319 319 319 319 318 318 316 314 313 312 311 310 310
269 270 271 273 274 276 277 279 280 282 284 287 290 292 294 293 292 292 293 294 294 295 295 296 299 302 302 302 303 304 305 308 309 309 310 311 312 312 313 314 314 314 315 316 317 318 319 320 320 321 323 322 320 320 322 323 324 323 322 320 321 321 321 321 321 321 322 322 322 321 321 321 320 320 320 319 319 319 319 318 316 315 313 313 313 312 311 311
268 270 271 273 274 276 277 279 281 283 285 288 290 292 292 291 291 291 291 292 293 294 295 298 301 302 302 302 302 303 306 308 309 309 310 311 312 313 314 314 314 314 315 316 317 317 318 320 320 320 322 322 320 320 322 323 324 323 322 321 321 321 320 321 321 322 322 322 321 321 321 321 320 320 320 320 320 319 319 318 317 315 315 314 314 314 313 313
268 269 271 273 274 276 278 280 282 284 286 288 290 290 290 290 290 289 289 291 292 294 296 299 301 301 301 301 302 304 307 309 309 309 310 312 313 313 313 313 313 314 315 316 316 316 317 319 319 320 321 321 320 320 322 323 323 323 322 321 321 320 320 321 322 322 322 321 320 320 320 321 320 320 320 320 320 320 319 319 318 317 316 316 316 315 314 313
269 270 272 274 276 278 280 282 284 285 286 288 289 289 289 288 287 287 289 290 292 294 296 299 299 299 299 300 303 306 308 309 309 309 311 313 313 314 314 314 314 315 315 315 316 316 317 319 319 319 321 321 320 320 322 323 323 323 322 321 320 320 321 322 322 322 321 320 319 319 320 320 320 320 320 320 320 320 320 319 318 317 316 316 315 314 314 313
271 272 274 276 277 279 281 283 284 285 286 287 287 287 287 287 286 286 288 290 292 294 297 298 298 298 299 301 304 307 307 308 309 310 312 313 314 314 315 315 315 315 315 315 316 317 318 319 319 319 320 321 320 320 322 323 323 322 322 321 320 321 321 322 323 322 321 319 319 320 320 320 320 320 320 320 320 320 320 319 317 316 316 316 315 315 315 315